Coimbatore International Airport

Jump to: basic info | weather | frequencies | runways | comments

Related pages: nearby airports | nearby navaids | notams | map

Basic information (top)

Codes: CJB VOCB
Location: lon 11.030000, lat 77.043404, elev 1,324 ft / 404 m msl
Status: medium_airport
Scheduled airline service: yes
Links: Wikipedia Mobile

Weather (top)

Current conditions (rec'd 2015/01/27 22:00Z):

VOCB 272200Z 04004KT 5000 HZ NSC 22/19 Q1013 NOSIG

Airport forecast (rec'd 2015/01/25 18:00Z):

TAF VOCB 251500Z 2518/2624 05005KT 4000 HZ SCT015 
      BECMG 2523/2524 3000 HZ 
      TEMPO 2600/2603 2500 BR 
      BECMG 2604/2605 6000 
      BECMG 2612/2614 5000 HZ 
      BECMG 2619/2620 4000 Z

Frequencies (top)

Verify before use: may be inaccurate or out of date.

APP: 120.05 MHz (AFTER 0430 HRS UTC)
ATIS: 128.05 MHz ()
TWR: 118.15 MHz ()

Runways (top)

05/23: 8,480 x 150 ft (2,585 x 46 m) — paved — lighted

Latest comments (top)

re: Flying Club: Dude, i been looking for someone ... [read]

more international flights: is there any near future plan to have ... [read]

Flying Club: Anyone interested in starting a flying ... [read]

More... (top)

See also NOTAMs and nearby airports and navaids, or visit the Coimbatore International Airport page at the main OurAirports website..